Theta_e
353 347 349 355 355 355 355 355 357 357 357 357 357 357 357 356 356 356 356 355 355 355 355 355 355 354 353 353 352 352 351 350 351 352 352 353 354 354 353 352 352 352 352 352 353 353 353 353 352 350 348 347 347 347 347 350 349 348 348 348 348 348 346 344 343 343 343 342 341 342 342 341 340 340 339 340 343 344 341 340 337 332 331 333 335
351 349 350 355 354 355 355 356 356 356 356 357 357 357 357 356 356 356 356 356 355 356 355 354 354 353 353 352 351 351 351 350 350 351 351 352 353 352 352 351 352 351 351 352 352 353 351 350 350 349 349 348 348 347 346 347 347 347 347 347 346 345 344 343 343 342 342 343 343 340 338 338 338 337 340 340 342 343 340 337 337 335 333 335 335
351 349 350 353 355 355 355 356 356 356 356 357 357 357 357 356 356 356 355 355 355 355 354 353 352 352 352 351 351 351 350 350 349 349 350 351 351 351 351 350 351 352 350 349 350 351 351 350 349 348 348 347 346 346 346 346 345 345 344 345 344 343 344 344 344 343 342 342 342 342 342 340 340 341 341 341 342 342 339 336 335 335 332 335 335
350 348 351 356 355 354 355 356 356 357 356 356 356 356 356 356 356 355 355 355 354 353 353 353 352 351 351 351 351 351 351 350 349 349 349 350 350 350 350 351 351 350 348 347 347 349 349 350 348 348 347 347 346 345 345 346 346 344 344 344 344 344 345 343 342 342 343 343 343 345 341 339 339 340 341 341 340 340 340 336 334 335 334 335 335
350 349 352 354 355 355 355 355 355 356 356 356 355 356 356 356 356 355 355 354 354 353 352 352 351 351 351 352 352 351 351 350 350 350 349 349 351 348 347 347 346 347 346 347 347 349 349 348 347 347 346 346 345 345 344 345 345 345 344 343 343 343 343 343 343 343 341 343 342 347 340 338 337 338 339 339 339 339 339 338 336 335 335 335 334
350 349 348 351 353 354 354 355 355 355 355 355 355 355 356 355 355 355 355 354 353 353 352 352 352 351 352 352 352 351 351 350 350 349 349 349 351 348 347 346 346 345 345 345 346 347 347 346 346 346 346 345 345 344 344 344 345 344 343 343 342 342 342 341 343 343 344 342 345 345 341 339 338 337 340 342 340 340 340 338 336 335 335 335 334
352 348 347 350 353 353 354 354 355 355 355 355 355 355 355 355 355 354 354 354 353 352 352 352 352 352 352 352 352 351 351 351 350 350 350 349 349 350 347 346 346 346 345 346 345 345 345 345 346 347 346 346 345 345 344 344 344 343 342 343 342 341 341 341 338 342 341 345 347 342 340 340 339 337 340 339 337 338 338 338 337 336 335 334 334
352 349 348 348 352 353 354 354 354 355 355 355 355 355 355 355 355 354 354 353 353 352 352 353 352 352 353 352 352 352 351 351 350 350 350 349 348 349 348 347 347 347 346 345 345 346 346 346 347 346 345 346 345 345 344 344 343 343 342 341 341 339 339 340 340 342 343 344 341 343 343 341 339 338 339 338 338 339 340 338 335 335 335 334 334
351 351 349 350 353 352 354 354 354 355 355 355 355 355 355 355 355 354 354 353 353 353 353 352 353 353 353 353 352 351 350 350 349 349 349 348 348 348 350 347 346 346 346 346 346 347 346 346 346 346 346 346 345 344 344 345 345 345 344 343 341 340 340 339 342 342 343 344 341 342 342 341 340 338 339 339 342 342 341 339 336 335 335 333 333
352 352 351 351 353 353 353 353 353 354 354 354 355 354 355 355 354 354 353 353 353 352 352 353 353 353 352 352 351 350 349 349 349 350 348 348 348 348 347 347 347 346 346 346 346 345 345 345 346 347 346 345 345 344 345 346 345 345 345 344 342 342 341 342 343 343 344 340 340 343 342 347 337 333 335 341 341 341 341 338 336 335 333 334 333
352 351 351 351 352 352 352 353 353 353 354 354 354 354 354 354 354 353 353 353 353 352 353 353 353 351 351 351 350 350 349 348 348 348 348 349 347 348 347 347 346 346 345 345 345 345 345 346 347 347 346 346 345 345 345 345 345 344 344 344 343 342 343 344 342 343 340 334 334 331 333 343 339 338 339 340 339 340 339 337 336 335 334 334 334
351 352 351 351 353 351 352 352 353 353 352 353 353 353 354 353 353 352 352 352 352 353 353 353 352 351 350 350 349 349 349 347 346 345 346 347 346 347 347 346 346 346 346 345 345 345 345 346 347 347 346 346 345 345 344 345 344 344 343 342 343 343 343 344 342 343 342 340 342 343 341 339 338 338 341 340 340 339 339 337 335 335 335 334 334
349 351 352 353 352 351 352 352 352 352 352 352 352 353 353 353 353 353 352 352 353 353 352 351 351 348 348 349 348 348 348 347 345 344 345 347 346 347 347 347 347 347 346 345 345 348 348 348 347 347 346 346 345 345 345 344 343 343 342 341 341 341 342 344 342 341 339 340 339 337 338 338 337 339 340 341 339 338 338 337 336 334 334 334 334
349 350 352 350 351 353 351 351 351 352 352 352 352 352 352 353 353 352 351 351 352 352 352 350 349 348 348 348 348 347 346 346 345 345 345 345 346 346 347 347 347 347 347 347 347 347 347 347 346 346 346 345 344 344 344 342 342 342 343 343 342 343 342 345 346 340 339 341 342 341 341 339 339 340 339 339 338 338 338 337 336 333 334 334 333
349 351 350 350 352 351 353 351 351 352 352 351 352 352 353 352 351 351 351 352 352 351 350 350 349 347 347 348 347 347 347 346 347 346 345 346 346 346 347 347 347 347 347 346 346 346 346 345 345 344 345 344 343 342 343 343 342 344 344 344 342 344 343 343 342 342 338 338 341 340 340 338 343 339 338 339 339 338 337 337 337 336 335 334 333
352 352 352 350 350 351 352 353 352 352 352 352 352 352 351 351 351 351 351 351 349 348 347 348 347 344 346 347 347 347 347 346 347 346 346 347 346 346 346 346 346 346 346 346 345 345 345 345 344 344 343 343 343 341 341 341 343 344 344 344 344 345 344 345 345 342 341 340 339 339 338 339 343 340 338 338 339 339 337 336 335 335 333 332 332
354 353 351 348 349 348 347 351 351 353 351 351 351 351 351 351 351 351 351 349 348 345 345 348 346 345 344 342 344 347 347 347 347 347 347 346 346 347 347 346 345 345 346 346 345 344 344 343 343 343 342 342 341 342 341 343 342 343 342 340 344 344 344 346 345 343 342 340 340 341 340 339 342 339 338 340 338 337 337 336 336 335 333 333 333
353 352 347 346 346 345 347 350 348 351 353 351 351 351 350 351 350 350 349 348 345 345 346 345 344 343 344 345 346 346 347 347 348 348 347 347 347 347 346 345 345 345 345 345 344 344 343 342 342 342 342 341 341 340 342 340 342 342 340 340 343 345 346 347 348 342 339 342 340 341 340 342 340 339 337 337 337 336 335 336 336 336 335 332 332
353 351 348 346 343 345 345 349 350 352 350 347 349 348 349 350 350 349 347 347 345 346 343 342 343 343 346 348 348 348 348 348 347 347 347 347 347 346 345 345 345 345 345 344 343 342 342 342 342 342 341 341 341 342 341 341 341 339 341 342 343 344 345 346 343 338 339 342 340 340 340 340 339 338 338 337 336 336 336 335 335 335 334 334 331
348 350 349 347 347 345 348 349 347 348 343 345 346 346 345 346 347 345 346 347 346 344 342 341 342 345 346 347 347 348 347 347 348 347 347 346 346 346 345 345 344 344 344 341 341 341 340 341 342 341 341 341 341 341 340 340 338 339 341 343 343 345 346 345 340 340 341 340 341 339 341 340 339 338 338 337 336 335 336 335 334 335 335 334 332
349 346 345 349 350 346 344 347 345 343 346 345 346 347 345 345 346 342 345 347 345 344 343 343 344 344 345 347 347 345 346 345 345 345 347 346 346 345 345 344 344 344 343 341 341 341 341 341 341 342 341 341 340 340 341 339 339 338 340 342 344 347 345 343 341 340 338 337 339 338 341 339 341 337 337 337 336 336 335 334 335 335 335 335 333
345 342 343 349 348 347 343 346 342 344 346 348 346 345 345 345 345 347 348 348 344 345 345 346 344 346 346 346 344 346 343 345 345 345 345 346 345 344 344 344 344 344 343 342 341 341 342 342 341 339 340 341 341 337 337 343 340 340 340 342 345 344 344 343 341 341 340 338 339 340 341 340 339 338 338 337 336 335 334 334 334 335 336 335 333
340 340 342 343 345 347 344 343 345 343 344 341 343 346 347 348 349 346 347 343 344 345 346 345 345 344 345 345 345 345 346 345 346 344 344 344 344 344 344 344 343 343 343 343 343 342 342 342 342 341 339 339 339 339 336 335 336 341 340 341 345 340 345 343 340 342 339 339 338 342 341 341 339 339 338 335 334 335 334 334 335 336 335 334 333
340 340 339 343 345 347 344 348 343 342 347 345 344 347 348 345 346 346 346 346 343 342 342 344 346 343 345 344 343 342 343 345 343 343 344 344 344 344 344 343 343 343 343 343 343 342 342 343 342 341 341 339 338 337 337 339 338 338 340 341 340 342 344 343 338 339 340 338 338 342 341 340 339 339 339 337 335 335 334 335 336 335 335 334 332
338 340 340 340 342 343 342 346 345 345 346 347 347 345 347 348 348 347 347 348 345 345 346 346 344 343 341 342 342 342 342 344 343 343 344 343 345 343 343 343 343 344 343 340 341 342 342 339 339 338 338 338 339 339 339 337 341 339 342 341 343 344 341 342 340 340 340 341 339 341 341 341 341 339 339 337 335 335 335 335 335 335 334 334 333
334 339 341 342 342 340 343 342 344 346 347 348 342 344 346 347 345 344 345 345 344 344 345 343 344 341 342 339 343 342 344 342 344 345 345 345 345 344 342 345 345 343 343 343 341 339 340 339 337 335 339 339 340 339 336 337 335 335 337 340 341 342 342 341 339 341 342 340 340 341 341 341 341 342 339 338 336 335 335 334 334 334 334 334 333
336 337 339 336 342 342 340 340 341 343 345 346 343 343 344 345 343 345 344 345 345 343 344 344 344 341 342 344 340 345 343 344 344 340 340 343 340 339 344 342 341 343 346 344 341 341 341 341 340 339 338 339 337 336 336 334 337 333 335 334 337 338 339 340 340 339 342 341 340 341 342 342 341 342 338 338 336 335 335 334 334 334 334 334 334
338 339 337 340 339 344 339 339 340 341 342 345 345 343 346 345 345 346 345 344 343 345 344 339 340 339 341 341 347 339 341 338 336 344 344 341 338 337 341 341 342 341 344 341 339 341 338 338 338 337 335 337 335 337 334 335 333 337 335 333 333 339 339 338 340 340 345 343 339 341 342 341 342 341 338 337 337 335 335 334 335 334 332 333 333
335 337 337 339 344 345 346 341 341 338 341 343 342 341 343 344 344 345 344 344 344 342 342 339 339 342 341 344 342 341 338 338 339 340 341 343 343 338 339 339 338 337 340 342 339 340 341 341 339 337 334 337 336 336 336 336 336 336 334 332 334 333 338 340 337 338 343 344 341 340 342 341 342 341 338 338 337 336 336 335 335 334 332 333 334
338 339 340 341 344 343 341 340 341 340 340 343 343 343 343 344 345 344 345 344 343 340 340 339 341 346 344 341 342 342 344 342 344 343 340 343 343 345 343 343 339 338 336 337 342 340 340 339 339 337 335 336 335 335 335 336 333 334 332 333 333 334 336 337 337 337 338 341 344 340 342 342 342 342 340 338 336 336 335 335 334 334 332 334 334
339 340 341 341 343 340 339 340 341 345 343 339 344 344 344 342 342 341 342 343 343 342 343 343 344 343 347 344 342 343 344 344 344 342 341 341 344 344 344 344 343 340 338 339 339 340 341 338 337 337 336 334 340 336 334 335 333 332 332 331 331 335 334 333 337 337 341 343 343 340 340 342 341 341 341 340 339 336 335 334 335 335 334 333 332
338 340 341 343 342 339 338 339 340 344 343 340 340 341 341 340 341 342 340 340 337 340 342 343 342 344 346 345 344 343 343 343 344 342 340 340 341 341 342 340 340 341 339 336 338 337 338 339 338 337 336 337 338 337 334 337 334 331 330 330 332 334 333 333 334 336 336 342 342 343 340 340 341 341 339 340 339 338 336 334 332 334 334 333 332
339 341 342 342 342 341 337 340 343 344 343 342 342 341 339 339 340 338 339 341 340 340 342 343 345 347 348 346 345 345 344 344 344 343 341 341 342 342 342 340 340 340 339 339 338 338 337 340 339 337 334 336 335 336 334 334 334 335 333 330 333 331 331 331 332 336 335 338 340 342 342 339 339 341 340 340 340 338 339 339 334 332 335 332 332
342 341 342 341 342 341 340 341 343 340 342 340 340 337 340 339 342 339 341 343 342 342 344 344 346 345 345 344 342 343 345 345 342 342 342 341 342 342 341 339 340 341 340 339 338 337 337 336 337 335 335 337 334 335 331 333 331 334 333 332 331 335 334 331 333 335 336 336 341 339 342 341 339 339 338 340 339 339 339 337 335 332 332 332 332
338 340 339 340 342 342 342 341 341 341 342 342 342 343 343 340 340 340 342 346 344 343 345 346 343 344 344 342 342 344 344 343 342 341 340 340 339 339 341 339 342 341 337 337 336 335 335 336 337 335 335 336 336 335 333 332 335 329 333 336 332 331 334 334 333 333 334 333 339 339 342 341 343 341 338 336 341 339 339 339 336 334 332 333 332
337 338 339 340 339 342 342 340 341 342 344 343 346 345 344 345 343 342 344 346 343 342 343 344 344 343 342 342 343 342 342 343 342 340 339 338 337 337 336 342 341 339 337 336 337 336 336 336 335 334 333 334 334 332 334 333 333 333 333 334 337 336 333 333 334 331 333 336 333 339 339 341 340 339 338 342 337 338 338 338 340 338 335 334 333
339 339 338 338 340 341 341 341 343 343 345 345 346 347 346 344 345 344 345 346 342 341 340 340 339 339 341 343 342 342 342 342 341 340 339 338 337 337 337 338 342 338 335 338 336 338 337 336 336 335 335 334 335 334 332 333 333 334 334 334 335 336 336 337 337 335 335 335 335 334 337 336 339 339 341 341 338 338 338 338 338 339 338 337 336
340 337 339 339 338 340 340 340 342 343 344 345 346 345 344 343 344 342 341 338 337 335 337 338 339 337 338 338 340 343 343 343 341 341 341 340 339 338 337 338 338 337 336 336 338 338 337 337 335 337 335 333 331 331 332 334 333 334 335 336 336 335 336 337 338 337 334 334 340 338 340 340 338 338 339 337 337 339 338 337 338 338 339 338 336
338 336 340 339 340 340 341 342 341 341 342 343 345 344 344 341 341 340 338 337 337 336 337 337 337 339 337 338 337 338 338 338 341 341 342 338 338 338 338 337 335 335 335 335 337 339 338 336 335 335 334 332 332 332 334 334 333 332 333 334 335 334 337 337 338 336 337 338 339 337 337 339 338 338 337 336 339 337 336 338 335 335 337 336 337
334 335 338 340 339 339 340 339 341 339 340 342 343 341 340 338 336 335 333 332 334 334 337 335 337 334 336 336 336 338 337 338 338 340 340 339 339 338 338 339 335 335 334 333 336 337 337 335 334 333 330 332 335 331 335 336 333 334 330 335 336 334 332 334 336 336 337 338 340 337 337 337 337 336 335 337 338 336 336 338 339 337 338 335 334
332 333 335 338 339 338 337 337 338 338 339 339 339 338 336 334 334 331 330 332 332 334 334 335 336 335 334 332 334 334 336 337 336 337 337 337 338 339 337 337 337 335 334 335 336 338 339 337 335 334 330 328 330 333 334 336 333 328 332 331 331 333 335 333 334 334 332 335 336 341 339 338 338 336 334 336 334 336 337 337 336 338 337 336 334
330 332 335 337 338 338 338 337 337 336 339 339 338 339 337 333 332 331 330 331 329 330 331 334 335 334 334 335 335 335 336 336 336 337 337 337 340 337 340 338 337 336 336 335 335 333 335 335 336 335 333 332 329 333 332 333 328 325 323 325 327 332 332 332 331 333 333 334 335 336 336 336 337 336 337 333 337 337 336 335 336 336 336 338 336
331 332 336 337 337 337 337 337 336 335 334 333 334 335 336 337 336 333 332 329 332 334 331 331 331 330 336 335 336 335 334 332 334 334 335 335 335 335 337 339 337 337 336 335 335 335 335 332 331 332 332 332 332 335 334 334 327 330 329 325 321 320 325 331 331 331 333 334 337 334 334 331 333 334 337 333 334 335 335 334 334 335 335 336 335
330 332 334 336 337 336 336 334 333 334 332 332 332 334 337 336 337 337 337 335 332 333 333 332 330 330 332 334 335 336 334 333 332 331 331 333 334 333 333 334 338 337 335 335 334 334 335 334 335 335 335 330 327 330 333 333 330 329 319 321 321 318 317 321 326 330 332 333 332 331 332 333 336 336 337 334 334 333 334 335 334 336 337 336 335
331 331 334 335 337 336 334 333 333 334 333 332 332 333 337 336 336 337 336 332 331 328 327 325 328 328 328 330 332 334 333 331 332 331 328 329 331 333 332 332 333 338 336 335 333 333 333 335 334 333 331 331 329 330 332 333 332 333 329 322 320 318 317 322 325 326 329 327 329 332 334 332 333 334 332 333 334 334 334 334 335 334 335 337 334
331 333 334 335 337 336 334 333 333 334 333 332 333 336 335 334 333 329 325 325 323 324 323 323 322 325 325 329 330 331 331 332 331 331 330 330 330 331 333 330 333 333 334 335 335 334 334 333 334 334 333 332 331 329 328 331 334 333 333 330 329 323 320 323 322 316 328 330 331 328 330 331 332 332 334 332 331 332 334 333 333 334 332 332 332
333 334 336 334 334 335 333 333 332 330 331 334 336 335 333 333 331 328 327 326 324 327 328 329 327 324 326 328 328 331 330 331 332 331 332 332 333 333 333 332 331 331 331 331 331 330 329 328 333 333 333 333 333 329 328 329 331 331 332 332 330 329 329 324 319 322 319 324 328 328 328 329 331 332 330 330 331 334 334 333 332 333 332 332 333
333 334 334 333 330 332 332 330 328 330 330 329 334 336 334 333 332 330 330 327 328 326 328 328 328 327 326 326 329 330 330 330 330 329 331 330 332 332 332 332 330 329 327 328 328 328 329 330 332 332 332 334 333 330 329 329 326 328 331 331 330 331 330 329 328 322 319 317 320 326 328 329 332 329 331 328 330 333 332 332 332 332 334 333 332
333 332 331 329 331 332 329 328 329 329 329 326 325 327 334 335 334 331 328 329 327 327 326 326 326 328 327 327 328 328 330 330 329 329 329 329 330 332 331 330 330 329 328 327 329 329 331 331 334 334 335 334 333 333 330 329 328 328 330 330 329 327 329 329 328 327 322 319 319 321 321 326 327 330 330 331 331 332 330 330 331 331 330 331 331
333 332 331 331 330 331 331 331 329 330 329 327 329 328 332 337 336 334 329 325 325 324 324 324 326 328 327 327 326 327 328 329 330 329 329 328 328 329 329 329 330 327 325 326 329 330 330 330 331 332 335 333 334 333 331 332 331 331 328 326 325 326 326 325 327 324 325 324 320 321 320 321 318 323 327 328 329 329 328 329 328 327 328 327 326
331 328 327 326 328 330 330 329 330 330 330 330 330 333 330 334 334 332 328 326 325 325 324 325 324 326 324 326 326 327 329 328 328 329 327 328 329 329 328 328 326 326 326 326 327 326 328 328 329 329 330 331 332 333 333 333 332 330 330 328 325 324 324 323 321 323 323 320 319 318 320 319 318 318 321 323 324 323 323 325 325 326 327 326 322
Wind_Speed
14 17 16 18 15 14 14 15 14 15 16 17 16 17 18 18 17 18 18 17 17 16 15 14 14 14 14 14 13 12 12 9 9 10 11 12 12 12 12 13 14 14 14 14 14 13 14 14 13 13 12 11 11 11 11 12 11 11 11 13 12 11 9 12 13 12 12 13 14 13 12 12 12 11 10 12 14 16 17 17 10 11 9 9 9
15 16 15 16 15 14 15 16 15 15 16 17 17 18 18 18 18 18 18 17 16 16 15 14 14 14 14 14 13 13 12 10 8 9 10 11 11 11 12 13 13 12 13 15 14 14 13 12 12 12 12 12 12 11 12 13 13 13 13 12 12 11 11 11 11 11 12 12 14 13 12 12 11 9 12 13 14 16 17 16 16 10 9 11 10
15 15 14 17 16 16 15 15 15 15 17 17 17 18 18 18 18 18 18 17 16 15 15 15 15 14 14 14 13 13 12 11 10 9 8 10 10 11 11 11 11 12 11 12 12 13 12 12 11 12 12 12 12 11 12 13 12 11 12 12 12 11 11 10 9 9 11 12 13 15 16 13 12 12 12 13 14 15 15 14 12 13 10 12 10
16 14 15 16 17 15 15 15 16 16 17 17 18 18 18 18 18 18 17 16 16 15 15 14 14 13 13 14 14 13 13 12 11 10 9 9 11 11 11 11 11 11 11 10 10 12 12 12 11 12 11 11 11 11 11 12 12 11 11 11 11 11 8 6 7 8 8 9 13 17 9 10 10 12 12 12 13 14 14 13 13 15 13 12 11
16 15 15 14 15 15 16 16 15 17 17 18 18 19 19 18 18 17 17 16 16 16 15 14 14 14 14 14 13 13 13 12 12 11 10 9 8 9 9 8 9 9 9 9 9 12 11 11 11 11 11 10 10 11 10 11 11 11 10 10 10 8 4 3 3 6 8 10 11 9 9 9 8 10 11 12 13 13 13 13 13 14 13 12 11
15 15 15 14 14 16 15 15 17 17 17 18 17 18 18 18 18 17 16 16 16 15 15 14 14 14 14 14 13 13 13 13 12 12 10 9 7 8 9 8 8 8 8 9 9 11 10 10 10 11 11 11 11 11 11 10 11 11 10 10 8 5 2 2 2 4 4 6 10 8 7 8 8 8 10 11 12 12 13 14 12 11 11 12 11
16 14 14 14 12 15 14 15 17 16 15 17 17 17 18 18 17 17 17 16 16 16 15 14 14 14 15 14 13 13 13 12 12 11 10 9 7 7 9 8 8 8 8 8 8 9 9 10 10 11 11 11 11 11 10 10 10 10 10 8 6 3 2 3 2 5 7 7 8 3 6 8 8 7 10 10 10 10 12 14 12 11 11 11 11
14 13 14 14 12 16 14 15 16 15 16 16 16 17 17 17 17 17 16 16 16 15 15 14 14 14 14 13 13 12 12 12 11 11 10 10 9 9 9 10 9 8 8 7 7 8 8 9 10 10 11 11 11 10 10 10 9 9 8 8 6 1 2 3 7 8 10 8 4 5 6 7 9 8 9 10 10 11 12 14 12 12 11 9 9
14 14 14 14 14 19 15 16 15 16 16 16 16 17 17 17 17 17 17 16 15 15 14 14 14 14 13 13 13 13 12 12 11 9 11 11 10 9 7 9 9 9 8 7 6 7 8 9 10 10 11 11 11 10 11 10 10 9 9 7 4 1 4 7 10 9 9 4 6 7 7 9 8 9 9 8 12 13 11 11 13 12 13 12 10
14 14 14 12 15 16 15 15 17 17 16 16 17 17 17 16 17 17 17 17 16 14 14 13 13 13 13 13 13 13 12 11 9 7 9 10 9 10 9 8 9 8 8 9 8 7 6 7 9 10 10 11 10 10 11 10 9 8 7 6 2 2 6 10 10 11 6 7 6 8 12 12 10 9 9 11 13 13 16 18 13 11 10 12 13
14 13 13 14 19 15 15 15 16 18 17 16 16 16 16 16 17 16 16 16 15 14 14 13 13 13 13 13 13 12 11 11 8 8 9 7 9 10 10 10 8 8 7 7 8 8 8 8 9 10 11 10 10 8 7 7 6 6 5 3 1 4 8 8 10 8 4 7 7 6 8 12 9 8 10 10 11 13 15 13 11 12 12 12 12
15 13 13 14 19 16 15 15 16 16 19 18 18 17 17 18 18 18 17 16 15 14 12 12 12 12 13 13 13 12 12 10 8 6 6 6 9 10 10 9 8 8 7 7 7 7 8 8 9 10 11 10 8 6 5 5 5 4 2 1 3 6 9 10 9 3 5 9 4 5 10 10 10 10 10 11 11 12 14 13 11 11 11 11 11
14 14 14 15 17 17 16 16 16 16 18 20 19 19 16 17 17 17 16 13 13 13 13 12 11 12 12 13 13 14 12 11 10 7 3 7 9 10 10 10 8 8 8 8 8 8 9 10 9 11 10 9 7 6 5 4 4 4 1 1 4 8 10 12 8 3 6 6 5 6 9 9 9 10 11 11 10 10 12 12 11 11 11 11 10
14 14 15 16 14 17 15 15 15 16 15 15 14 14 14 15 15 15 14 13 12 12 12 12 12 12 13 14 14 13 12 11 11 9 7 5 8 10 10 10 9 9 8 8 9 9 10 10 9 10 9 8 6 5 5 4 4 3 2 1 4 9 12 11 12 4 4 5 7 8 10 8 9 9 10 10 10 11 10 11 11 10 10 10 10
15 15 15 15 15 16 17 13 13 14 14 14 13 13 13 12 13 13 13 12 12 12 11 10 10 11 13 13 13 12 11 11 11 10 9 10 10 10 10 10 10 10 10 9 10 10 10 10 9 8 8 7 5 2 3 5 5 4 2 2 6 9 11 8 6 6 5 3 4 8 9 9 6 8 9 10 10 11 10 10 11 11 10 10 10
14 13 15 14 15 15 14 14 13 13 13 12 12 12 12 12 11 11 11 12 13 13 11 10 10 8 10 11 12 12 12 10 10 10 11 11 10 10 10 10 10 10 10 9 9 9 10 10 10 8 6 6 5 4 4 4 4 3 2 1 7 9 9 9 7 4 3 4 5 8 9 8 5 8 9 9 11 10 10 9 10 10 9 9 8
12 14 15 15 15 14 13 13 13 14 13 12 13 12 12 12 11 10 11 13 15 14 13 12 15 12 11 10 7 10 11 9 11 12 11 11 10 11 11 9 9 10 10 10 9 9 9 9 8 7 5 4 4 4 3 3 3 3 1 2 7 8 9 10 6 3 4 4 4 8 7 7 8 8 8 12 9 9 10 10 10 9 9 9 9
13 13 15 15 14 14 12 11 12 10 9 11 12 11 11 12 11 11 12 14 14 13 11 12 14 13 13 15 12 9 10 11 10 10 10 10 11 10 10 9 8 9 10 10 10 9 9 8 8 7 5 4 3 3 2 1 2 2 1 2 6 9 10 9 7 5 5 1 5 7 8 9 3 7 7 8 9 8 9 9 10 10 9 8 7
11 13 14 12 14 13 12 10 8 7 8 7 5 9 10 11 11 12 13 15 15 13 12 12 13 10 10 12 12 12 11 10 10 9 10 11 10 9 9 9 9 10 10 10 10 9 9 8 8 7 6 3 3 3 1 2 2 1 0 3 6 9 10 8 4 5 5 3 6 9 8 8 6 7 7 8 8 8 8 9 8 9 8 8 7
10 8 9 10 8 10 9 8 8 7 7 4 4 7 9 10 12 12 14 14 14 13 12 11 10 9 11 11 11 10 9 9 10 9 10 11 10 8 9 8 9 10 10 10 10 10 9 8 8 7 6 4 2 2 3 2 1 0 2 2 6 8 6 4 2 4 4 4 8 8 10 8 6 8 7 8 7 7 8 7 7 8 8 7 8
6 11 8 6 6 11 12 8 9 10 7 9 9 10 9 8 10 9 12 12 13 11 10 10 8 9 10 9 8 6 5 6 6 7 10 8 7 8 9 9 9 10 10 10 10 9 9 9 8 7 7 7 6 5 4 4 4 4 2 4 5 6 5 2 2 2 4 2 8 9 12 6 4 6 7 8 7 8 7 6 7 7 8 7 7
8 8 7 4 6 8 12 10 10 10 8 6 7 7 8 8 10 9 9 9 9 8 8 8 9 8 9 7 3 4 5 5 4 8 5 6 9 9 9 9 9 10 9 9 9 9 8 8 7 7 7 9 10 7 7 7 6 7 7 5 5 6 4 3 3 2 4 6 7 9 11 6 8 7 6 7 7 7 6 6 7 8 7 8 7
10 10 8 8 6 7 10 10 10 10 8 6 5 8 9 7 9 7 8 8 9 5 4 6 7 4 5 4 2 1 4 2 4 5 5 6 7 9 8 7 8 9 9 9 8 8 8 7 7 7 9 9 8 7 7 6 6 9 7 7 7 5 4 4 4 2 4 6 8 13 10 6 9 8 8 6 6 6 5 6 7 8 8 7 7
8 8 9 9 10 9 5 7 12 12 9 9 8 7 8 8 7 8 7 9 10 9 7 3 4 6 4 2 3 4 4 3 6 6 7 6 6 8 8 7 6 8 9 7 8 7 8 8 7 8 8 8 7 7 5 6 7 5 5 5 5 5 5 5 4 4 5 7 9 14 10 7 7 9 8 7 7 6 5 6 7 7 7 7 6
6 7 9 11 11 8 7 8 12 12 10 8 8 7 7 6 6 6 6 6 6 6 4 4 3 3 2 2 2 4 4 4 4 4 5 6 5 6 5 5 5 6 10 6 6 6 7 7 6 7 6 6 6 2 3 3 2 5 4 4 3 4 6 5 4 5 8 6 9 13 11 7 1 8 9 8 7 6 6 7 6 6 6 7 6
6 4 4 0 10 15 15 10 10 11 10 10 9 8 7 6 6 6 5 5 6 5 4 3 2 4 4 8 7 5 5 6 4 3 2 1 3 2 3 2 4 5 7 5 4 5 6 6 7 7 7 6 3 3 3 2 4 3 4 4 3 5 5 5 5 6 7 8 9 13 10 8 5 4 10 9 7 6 7 6 5 5 6 6 5
4 4 4 6 6 12 15 13 13 10 8 9 10 9 7 4 5 4 5 4 4 4 3 3 3 1 6 8 9 4 5 2 5 5 4 4 2 1 2 0 3 2 4 3 2 3 4 4 5 7 5 4 5 4 4 5 4 5 4 5 4 5 4 4 4 5 7 8 10 12 10 8 6 4 9 8 7 6 6 6 6 5 5 5 6
3 6 6 3 7 5 10 13 12 13 10 10 8 10 8 6 6 5 4 4 3 3 2 1 0 5 7 6 4 8 2 2 6 6 5 4 4 4 2 2 3 4 3 2 3 2 2 5 2 7 6 5 5 6 6 6 4 4 6 5 6 3 5 4 2 6 7 8 8 9 11 8 6 3 8 8 8 6 6 6 7 7 5 5 5
6 7 5 6 5 5 11 11 12 14 12 10 8 8 8 6 7 5 4 4 2 1 2 3 5 6 8 5 7 3 7 4 1 1 4 4 5 7 5 5 2 3 3 2 2 4 4 5 4 7 9 4 5 4 3 5 3 4 4 6 6 6 4 3 5 5 9 3 7 10 11 9 6 3 6 8 8 6 6 6 7 5 5 6 5
9 9 8 6 7 9 11 11 11 12 12 10 7 7 9 8 7 5 2 4 3 3 4 5 6 1 2 2 6 1 2 2 4 3 1 3 2 3 5 5 6 4 1 4 3 4 4 5 5 8 8 6 4 5 4 4 5 5 5 5 5 6 6 4 5 5 6 4 4 9 12 9 6 4 3 6 7 7 7 6 7 6 4 5 5
12 11 8 8 7 9 10 10 10 9 11 9 7 7 8 6 5 5 4 2 1 4 4 8 6 3 1 2 5 3 3 3 2 2 3 1 1 1 1 2 3 4 4 3 2 3 2 4 5 6 8 8 7 4 4 4 5 5 5 5 7 4 5 5 5 6 11 6 6 8 10 9 9 7 5 3 2 7 6 6 9 7 6 6 5
13 12 8 9 8 9 11 10 10 8 9 9 9 8 8 6 5 4 4 2 1 4 8 3 2 4 4 2 2 0 0 1 2 3 3 3 3 3 1 1 1 2 2 1 2 2 3 4 5 5 5 10 12 1 4 6 5 5 5 6 5 4 4 6 4 4 7 4 7 5 7 9 9 9 7 5 5 4 4 4 3 7 5 5 5
10 10 9 9 9 10 10 9 9 8 8 9 8 9 10 7 3 2 3 5 6 8 5 4 2 3 3 2 0 1 1 0 1 1 1 3 3 3 3 2 1 2 1 0 1 1 1 3 4 2 2 5 8 10 7 4 4 2 5 4 4 6 7 5 5 5 7 10 3 6 6 8 8 7 7 7 6 5 5 4 5 4 6 5 4
9 9 9 10 7 6 7 8 9 8 8 8 7 8 9 9 6 7 5 6 5 2 1 2 2 2 2 3 3 3 3 1 2 3 3 3 4 3 3 2 2 3 1 1 1 1 3 4 2 2 1 1 2 5 6 7 5 3 4 5 5 3 3 5 5 4 5 6 8 2 4 6 6 6 7 7 7 6 6 4 5 3 3 3 4
10 10 10 10 9 7 7 7 8 9 7 8 7 7 7 11 8 8 8 7 5 5 4 3 3 2 2 3 3 2 3 2 2 1 2 2 2 2 3 2 2 2 2 1 2 3 1 3 2 4 2 2 3 4 5 10 4 6 4 2 4 2 2 1 4 2 5 4 8 8 4 4 2 3 4 6 6 7 7 5 5 3 3 3 3
12 11 10 9 9 9 8 8 9 9 6 7 6 5 6 5 6 7 6 6 5 4 5 4 3 4 3 3 3 3 2 2 2 3 2 3 3 2 1 3 3 2 2 1 2 2 2 2 3 3 3 3 3 3 2 10 9 2 3 2 1 2 4 3 3 4 4 4 5 10 5 3 5 1 3 3 6 6 7 7 5 3 5 4 5
11 11 12 10 9 9 9 10 10 9 7 6 6 6 5 6 5 5 6 5 4 5 5 5 5 4 4 3 4 3 2 3 3 3 3 2 2 3 5 3 4 3 1 1 3 1 2 1 3 3 3 4 3 5 4 7 11 1 1 3 2 2 1 1 0 2 4 1 3 7 8 7 2 4 1 2 5 1 6 5 6 6 5 4 5
11 11 10 10 9 9 8 9 8 7 6 5 5 5 5 5 5 5 5 6 6 4 4 4 4 4 4 5 4 4 3 3 3 5 3 2 1 1 3 3 2 3 3 3 2 2 2 3 3 2 3 3 2 4 4 5 7 5 1 1 1 2 0 1 0 1 1 2 5 2 5 8 5 3 4 5 4 1 4 6 7 6 7 6 5
10 10 10 10 9 9 9 9 8 8 5 6 6 5 5 5 4 5 5 5 3 4 2 4 4 4 5 4 4 3 3 2 3 3 2 2 2 2 2 4 6 2 3 2 2 3 3 3 3 1 1 2 1 6 5 5 0 4 8 7 2 3 1 1 2 1 1 3 3 2 4 5 6 4 5 3 5 4 4 3 4 5 7 5 4
10 11 11 9 10 10 8 8 7 7 7 6 5 6 5 5 5 4 5 4 5 4 3 4 4 4 4 4 4 3 4 2 3 3 3 2 2 3 2 3 6 7 3 3 3 3 3 3 2 2 2 4 5 9 7 3 1 5 1 5 3 4 4 0 2 2 1 2 2 4 1 4 6 6 6 6 5 6 4 3 2 2 4 6 5
12 6 7 11 12 10 10 9 8 8 8 8 7 6 6 6 5 5 5 4 4 4 3 4 4 4 4 5 4 4 3 3 3 2 2 3 3 3 4 2 3 3 4 4 4 3 3 3 3 2 4 4 8 8 3 2 1 2 2 4 6 5 5 5 4 6 6 3 4 2 3 1 4 7 9 5 4 6 6 5 4 3 4 4 5
11 10 9 11 11 11 11 10 8 8 8 9 5 4 5 5 5 6 6 6 6 5 5 4 4 4 5 5 4 4 4 3 3 3 2 2 2 3 3 4 2 4 1 1 3 4 3 3 3 2 4 5 3 5 6 5 1 4 0 1 3 4 4 4 5 4 2 2 2 1 1 4 4 3 8 8 4 5 5 5 5 5 4 4 4
12 11 9 11 11 10 10 10 9 8 5 5 1 3 5 4 6 6 6 6 5 5 5 6 5 5 4 4 4 4 3 4 3 3 2 3 3 2 2 2 3 3 3 3 1 1 1 0 5 4 2 4 3 1 1 1 1 1 2 2 1 2 2 2 1 5 3 2 0 1 3 4 6 2 4 6 3 1 1 2 3 5 5 5 4
12 8 8 9 10 9 10 8 8 6 4 3 4 7 3 6 4 6 5 5 7 7 6 5 6 6 5 4 5 3 3 4 3 3 3 4 3 2 2 2 2 3 4 3 1 1 1 2 1 1 0 1 2 2 3 4 4 2 2 0 2 1 2 2 1 1 3 2 2 3 1 2 2 3 3 2 4 5 4 4 3 1 1 0 1
11 10 8 9 6 9 6 8 8 7 4 5 5 11 6 8 6 6 7 8 6 6 5 5 5 5 4 4 4 3 4 4 3 4 4 3 2 2 2 2 3 2 3 3 3 2 3 3 3 2 3 1 2 3 2 1 1 3 2 1 2 3 2 1 2 1 2 0 2 2 2 2 3 2 5 4 4 2 3 3 5 5 3 1 2
14 9 9 10 8 6 4 4 4 4 3 6 11 7 6 7 7 8 7 7 7 6 6 5 5 4 5 4 5 4 4 3 4 4 5 4 3 2 1 2 3 2 1 1 1 2 1 1 3 1 3 5 2 4 3 2 1 2 2 2 2 2 2 2 3 1 1 2 1 3 1 3 3 8 6 6 7 3 5 4 4 6 6 7 5
14 9 6 9 3 5 6 4 7 7 4 3 6 8 8 7 8 7 7 7 7 6 5 5 4 5 5 4 5 4 5 4 4 4 4 3 3 2 2 2 3 3 3 3 3 3 2 3 3 2 2 2 1 2 1 2 2 2 1 3 2 2 4 2 1 0 3 3 2 1 4 5 6 4 8 5 3 3 3 6 8 8 7 5 5
12 10 6 6 7 9 11 9 10 8 4 5 9 3 6 6 7 7 6 7 6 7 7 5 5 5 5 5 5 4 5 5 4 4 4 4 4 4 3 4 4 4 3 4 3 3 3 4 4 4 3 3 1 1 3 5 2 2 2 0 1 2 2 5 2 3 2 1 4 4 5 5 5 7 7 7 2 4 6 6 6 7 7 7 7
11 10 7 5 5 8 10 10 8 8 8 7 1 12 2 4 5 4 6 6 7 7 6 6 6 6 6 5 5 5 5 5 5 4 4 4 5 5 5 5 4 4 2 4 3 4 5 5 4 5 4 4 4 4 4 3 1 3 2 1 1 3 3 3 4 3 1 0 2 4 4 4 6 6 5 7 5 5 6 8 8 7 7 8 8
13 12 9 8 6 5 8 7 8 7 5 8 5 3 7 3 2 4 6 7 6 6 6 6 6 6 5 5 5 5 5 5 4 5 4 4 3 4 5 4 3 4 5 5 5 6 6 7 7 6 6 5 4 5 5 3 3 4 1 1 1 4 3 3 3 2 3 2 2 3 2 4 6 6 6 7 8 7 7 7 8 9 9 8 7
11 13 14 10 4 5 9 13 10 9 8 5 1 3 5 3 2 5 6 7 7 6 7 7 6 6 6 6 5 5 5 5 5 4 5 5 4 4 4 5 5 4 5 5 5 6 5 6 6 7 8 7 6 5 5 4 4 4 3 4 4 6 3 5 6 4 3 3 4 6 5 6 7 7 6 6 7 9 9 8 8 7 9 9 8
Wind_Direction
133 131 132 127 132 134 137 137 129 127 128 128 127 128 126 126 127 128 129 131 131 132 131 130 130 126 121 117 116 112 112 113 116 118 119 117 115 116 116 116 118 119 121 120 115 116 114 114 112 106 100 98 92 90 87 87 87 86 87 85 87 91 93 87 84 86 87 77 76 83 76 75 72 67 60 52 43 41 40 33 51 65 64 72 67
137 133 132 130 133 134 138 134 130 130 130 130 129 126 126 127 129 130 131 131 132 131 130 131 127 126 122 121 117 116 117 117 113 113 119 122 121 122 120 121 123 124 123 122 118 117 115 109 105 106 102 99 93 87 92 88 88 91 92 93 90 87 82 86 84 91 106 112 100 89 85 79 74 68 60 55 50 48 48 40 26 62 70 65 65
130 133 134 131 134 138 137 133 131 131 133 130 128 127 129 129 131 132 132 133 131 130 129 129 127 125 124 121 120 120 120 119 116 115 112 121 125 121 123 125 124 123 125 123 125 116 114 108 109 109 108 100 97 93 90 85 85 81 84 81 81 83 87 85 98 106 110 121 128 112 100 89 76 69 64 62 61 60 60 54 46 56 64 64 64
132 135 132 130 136 137 137 135 134 134 135 133 133 131 130 132 133 133 130 129 128 124 124 123 123 123 127 123 124 124 124 124 123 120 118 123 129 127 130 134 135 133 126 128 128 118 116 118 114 107 104 103 103 103 93 87 82 77 77 80 84 82 79 105 140 140 133 139 145 144 108 93 81 68 64 63 66 65 68 63 61 65 65 77 77
136 135 131 139 140 140 140 137 138 137 136 136 136 134 132 132 133 132 130 126 124 126 127 128 130 132 130 129 129 128 126 126 124 121 119 117 115 125 127 133 130 121 124 124 127 119 126 122 116 108 107 109 107 106 99 91 86 79 79 88 84 79 84 153 173 151 170 162 189 242 93 92 86 78 71 64 61 65 68 67 61 68 74 70 80
133 134 141 142 142 143 139 138 139 140 138 137 135 133 133 132 133 129 125 124 126 128 130 133 133 134 133 133 132 131 130 129 126 122 121 117 111 124 128 123 120 121 126 134 136 132 135 123 119 114 112 108 110 105 104 93 84 83 86 81 78 73 63 7 327 284 256 193 229 238 85 97 90 76 70 74 67 66 67 64 60 67 75 88 75
132 138 144 144 141 144 142 141 140 137 136 137 134 131 132 131 129 128 127 128 130 132 134 135 137 136 137 138 135 133 133 130 129 124 117 118 115 111 119 119 122 120 125 129 139 133 126 128 120 116 116 111 112 108 101 97 92 89 89 86 80 74 32 284 247 250 233 255 229 140 90 95 92 81 74 71 69 72 80 73 55 60 63 58 71
134 146 146 147 144 142 144 143 140 136 135 134 131 130 130 129 129 128 129 130 134 136 138 141 141 142 142 137 133 130 128 129 126 121 118 123 123 120 127 130 126 128 128 132 135 128 126 127 122 120 119 114 113 109 104 100 95 95 98 97 92 73 302 295 279 286 258 266 52 66 91 81 92 92 83 70 63 63 76 77 66 57 67 80 87
140 147 147 143 136 145 144 144 142 141 138 132 131 132 132 132 131 131 132 134 135 137 140 142 143 142 138 134 131 128 128 127 121 121 126 131 134 133 122 125 131 131 128 123 120 131 135 130 129 122 120 122 115 115 109 100 95 90 88 90 85 28 269 256 247 249 258 227 103 72 34 112 102 96 73 68 60 59 71 89 85 68 63 63 71
145 148 141 143 138 140 143 143 145 144 141 138 135 136 134 132 132 134 136 138 138 139 141 144 140 136 135 134 131 125 119 115 108 109 134 134 129 117 113 110 122 124 131 135 135 133 132 122 123 128 127 120 119 120 111 99 99 95 89 85 88 280 278 286 294 283 286 54 54 61 42 46 80 82 87 65 63 66 66 64 65 66 84 83 68
147 149 146 137 140 140 143 146 148 146 144 144 142 137 137 137 137 137 137 141 143 143 142 139 137 134 136 130 118 115 118 116 116 117 121 114 121 119 117 116 116 119 123 131 136 136 135 135 133 129 124 123 119 120 112 106 103 104 88 81 324 281 283 278 278 270 104 89 84 99 77 78 77 83 83 79 71 71 72 67 65 73 70 67 71
146 143 134 133 136 141 147 149 149 149 149 147 148 146 142 144 144 145 146 147 144 138 135 132 134 135 130 120 120 123 124 118 101 92 66 118 126 124 121 121 125 123 123 127 136 140 134 133 134 127 124 123 120 123 122 120 107 95 101 62 286 277 278 284 282 302 50 66 75 110 93 86 91 92 92 90 87 74 70 70 71 76 71 71 75
142 136 132 135 145 144 148 150 152 152 153 154 152 151 146 145 145 146 146 141 135 132 132 131 125 130 138 129 131 133 127 126 122 127 114 124 139 126 125 124 124 125 130 137 132 116 123 118 125 126 129 131 131 140 144 132 121 102 92 288 290 275 275 268 273 268 75 103 114 80 91 86 89 98 89 85 85 84 78 77 73 65 70 68 64
131 138 140 143 142 146 147 150 152 152 151 147 146 145 147 148 145 142 140 138 135 129 126 128 133 142 132 132 137 132 130 134 133 144 143 141 148 133 127 127 127 127 122 125 128 130 126 128 136 133 132 133 135 148 155 147 108 96 73 311 269 277 278 276 252 75 102 83 50 75 83 89 88 92 100 98 90 85 85 81 78 72 72 72 68
136 146 145 140 142 151 148 147 148 149 148 148 145 146 144 141 140 137 135 131 123 113 111 124 134 136 130 128 130 129 134 141 148 152 156 170 154 134 131 124 124 127 130 129 134 132 131 134 130 125 123 124 129 121 104 89 88 78 63 348 281 280 288 291 300 89 98 100 135 102 94 96 78 99 98 90 90 88 84 79 82 78 66 67 70
138 148 139 138 144 146 151 147 145 146 143 141 141 140 135 131 129 129 127 120 117 119 126 137 121 122 125 123 129 136 141 149 152 156 169 162 140 136 131 127 132 128 124 126 131 134 133 134 136 139 141 135 134 120 94 88 77 73 51 331 288 276 281 291 280 109 103 108 84 91 95 90 21 111 89 98 96 93 92 87 78 75 78 81 76
144 141 143 143 141 147 148 153 149 143 142 137 137 133 130 127 129 130 127 126 126 135 146 143 123 125 113 108 138 134 141 150 152 153 153 146 134 125 126 133 133 136 130 127 129 134 139 140 140 138 145 145 140 122 116 94 89 78 90 289 285 281 276 276 285 107 59 48 111 99 102 104 73 96 104 104 105 99 92 85 84 85 82 69 68
143 145 143 141 148 148 147 146 146 146 136 129 123 125 127 128 134 135 133 124 124 142 135 117 124 127 138 154 150 154 146 144 144 140 131 127 125 131 125 129 138 138 135 136 134 136 139 143 143 140 143 159 132 117 89 80 83 91 265 249 276 282 276 287 268 84 100 178 84 84 89 92 38 112 111 106 98 106 99 96 91 83 79 78 75
143 148 134 140 147 145 145 143 135 135 127 107 129 125 125 141 134 133 133 126 137 135 122 117 121 139 149 138 142 140 136 132 133 128 126 133 129 127 136 140 146 144 140 137 138 137 136 139 140 138 147 145 130 113 84 67 54 19 179 252 242 268 287 287 258 122 134 148 77 88 98 91 105 113 113 109 106 108 100 96 92 87 81 85 88
147 138 125 130 109 140 129 142 142 139 137 130 117 121 142 159 136 136 131 128 125 124 123 130 144 160 142 134 134 132 130 132 134 128 126 131 143 147 145 151 148 149 142 144 141 137 138 138 136 138 137 153 163 185 151 157 156 14 266 180 223 249 262 254 227 132 114 68 99 99 104 109 116 119 124 114 116 103 102 101 100 97 94 84 64
153 124 114 125 130 154 148 165 152 149 150 147 148 141 155 147 129 126 130 120 121 127 135 144 160 142 141 140 129 121 142 136 144 128 136 143 130 139 154 158 151 152 148 148 145 140 138 138 138 141 156 163 182 185 201 196 182 193 204 243 214 230 229 260 100 176 112 130 90 104 109 122 144 127 115 117 120 113 107 114 104 99 88 87 82
147 121 108 103 152 161 148 142 129 127 135 123 134 148 147 160 145 147 135 129 124 132 142 142 153 148 134 133 110 153 154 149 139 136 124 134 137 149 154 155 156 150 151 150 148 145 145 145 151 165 177 192 190 192 186 201 211 185 196 213 218 218 188 207 215 134 134 103 95 113 118 144 139 133 125 119 123 123 127 119 115 97 97 89 90
134 124 115 165 179 168 147 153 135 117 127 133 158 153 148 128 135 144 138 134 126 129 149 155 132 123 175 127 103 157 132 142 126 138 152 138 133 151 144 141 154 154 156 162 157 158 157 161 172 188 211 213 212 218 178 172 181 204 185 207 215 214 179 190 219 131 110 102 108 124 125 154 137 141 132 131 128 133 139 132 118 107 96 95 95
115 102 139 181 176 160 132 117 128 139 152 138 154 147 143 143 155 148 157 146 151 160 188 152 113 153 200 113 173 160 146 139 131 120 134 132 146 148 150 151 156 167 161 165 172 173 174 177 190 212 229 215 219 219 194 173 167 178 191 200 210 181 175 183 214 182 124 149 123 129 137 153 142 143 141 134 142 141 142 133 125 114 104 100 96
92 128 182 184 165 129 146 154 141 137 141 136 131 143 139 140 141 141 143 141 147 145 144 139 157 140 175 224 168 180 163 153 130 146 162 155 162 159 161 165 180 179 183 191 186 175 195 193 195 217 215 229 214 222 270 146 197 182 180 206 183 168 197 179 212 196 110 109 126 136 147 156 134 147 147 146 150 158 139 129 136 120 110 101 96
100 212 196 199 173 145 156 160 143 134 140 146 145 130 138 142 133 139 142 142 158 139 140 153 176 180 179 198 175 183 151 146 154 119 119 156 176 111 214 181 204 193 197 224 199 202 209 218 211 200 222 225 192 188 222 181 186 222 185 199 175 183 217 184 192 94 102 121 134 138 156 155 161 174 148 151 155 166 141 128 133 126 116 111 108
184 184 67 52 336 169 147 146 137 129 141 124 124 132 130 131 119 137 146 152 148 141 154 195 187 184 231 192 156 197 138 129 116 136 212 169 109 195 243 299 279 246 245 242 263 280 260 262 252 239 216 209 202 176 204 209 236 180 209 179 205 182 208 213 169 135 141 126 136 147 157 156 178 195 156 154 156 169 156 144 136 134 126 133 129
168 99 82 162 154 24 129 136 133 141 141 121 123 131 129 131 142 144 163 142 149 136 121 76 356 220 210 250 227 117 97 199 170 187 156 148 132 212 158 199 241 224 253 275 315 226 249 270 263 286 246 204 221 182 204 181 199 248 177 193 181 235 195 192 188 166 122 128 141 153 152 169 169 184 162 155 157 166 169 158 148 145 143 148 139
124 130 166 166 88 102 96 120 133 137 128 136 145 132 132 145 145 149 137 146 124 142 184 181 224 193 227 226 107 157 148 175 49 123 152 158 157 147 173 157 209 296 297 273 278 262 255 251 257 245 240 210 203 206 206 180 204 215 209 191 185 191 196 183 173 225 121 161 149 152 160 165 165 168 171 166 158 165 179 159 152 152 160 146 148
164 157 172 141 148 139 140 139 139 132 132 134 143 143 141 141 135 137 125 157 176 200 189 219 250 156 289 53 109 94 103 135 148 159 225 156 141 131 141 158 158 156 354 260 246 296 310 322 308 292 307 249 209 195 209 212 201 196 218 193 183 197 179 196 204 162 128 160 130 141 162 161 158 149 165 165 166 161 183 171 152 160 157 139 164
161 174 165 148 160 151 145 148 129 128 138 143 134 125 122 129 127 127 181 174 161 213 206 210 174 154 164 28 69 133 187 133 135 146 172 158 133 214 126 148 142 136 180 244 245 258 269 274 291 292 271 267 212 177 205 228 213 173 203 219 163 214 165 210 205 177 113 156 125 146 156 166 166 163 151 117 124 161 184 176 165 157 158 160 162
171 170 156 149 153 155 148 149 135 144 135 139 138 141 115 130 170 147 153 131 170 259 217 81 74 90 134 127 153 164 325 98 132 183 193 170 180 170 169 206 139 133 128 137 181 110 280 304 294 291 325 324 321 208 191 234 225 167 207 211 151 202 182 176 212 194 120 117 140 149 147 169 173 166 158 138 105 105 176 176 157 160 172 162 145
171 162 147 144 149 151 155 123 135 141 140 140 132 128 135 137 166 150 140 179 206 213 238 94 74 141 135 144 194 112 274 205 168 151 124 195 192 167 172 154 108 114 97 112 67 167 292 284 278 319 12 349 321 333 316 264 243 236 182 188 180 191 172 189 190 179 148 156 140 131 171 167 166 172 162 152 136 124 71 41 140 180 174 172 160
160 158 144 144 139 148 137 140 145 143 141 130 135 140 141 133 178 156 187 212 209 222 230 194 169 168 165 152 200 196 220 172 177 169 191 198 194 178 125 124 133 127 102 14 207 200 189 236 239 271 263 207 290 271 294 270 229 203 217 190 191 179 194 181 169 168 184 147 140 166 179 163 158 172 175 162 144 128 107 101 131 140 135 157 180
155 146 151 141 146 135 136 142 147 140 152 138 170 138 149 144 166 165 172 200 169 192 176 191 177 166 158 168 220 192 205 187 207 193 158 218 180 185 130 118 134 101 107 239 250 115 329 256 240 290 287 263 230 252 277 276 218 198 173 275 157 173 238 275 118 184 166 183 131 166 148 143 100 196 166 164 152 138 126 117 137 122 132 134 165
161 149 143 145 150 151 149 141 142 146 139 137 120 130 143 131 144 156 159 168 178 156 189 173 166 158 156 159 186 192 192 160 154 150 184 193 184 132 172 129 133 133 140 174 263 247 191 255 293 277 294 288 296 304 348 306 280 168 144 213 95 151 190 206 176 208 184 173 167 127 146 114 121 5 257 178 156 149 140 134 110 142 157 161 178
159 149 145 152 157 153 141 143 143 142 132 133 130 127 135 142 152 156 145 159 156 168 166 162 152 152 149 146 158 164 169 137 147 135 158 187 185 154 139 170 150 132 119 228 203 267 276 274 277 262 293 299 344 323 325 279 278 86 291 204 151 223 236 115 109 278 28 20 57 95 117 127 107 154 55 56 47 135 145 140 136 151 177 173 184
154 134 144 160 166 151 149 143 136 138 126 127 135 144 144 148 147 146 155 160 176 156 142 128 124 145 141 137 151 143 152 143 142 141 163 186 152 76 102 102 115 118 174 198 197 183 215 254 246 277 283 270 304 283 252 229 271 316 174 193 359 206 168 199 328 354 285 226 86 127 92 113 154 191 115 92 121 200 192 157 162 174 170 173 182
128 122 154 172 152 146 146 144 143 142 122 139 142 144 146 142 131 141 145 152 138 104 133 130 122 120 122 124 118 119 109 122 134 130 139 163 124 107 204 130 88 278 198 184 197 185 206 232 251 264 284 283 181 259 273 268 344 67 339 331 294 316 261 65 308 275 325 7 44 82 119 108 120 128 94 127 146 183 184 182 187 197 162 143 160
103 160 185 150 149 154 156 150 142 140 137 153 149 155 156 153 153 159 156 148 141 140 143 122 132 114 105 98 101 93 99 116 121 132 146 162 151 157 125 159 177 180 147 180 191 196 194 223 234 232 295 310 253 242 226 252 105 54 306 293 330 271 327 89 323 250 78 54 27 23 339 142 139 119 121 182 179 161 172 187 168 132 150 157 158
125 169 175 164 156 159 157 152 147 142 148 157 165 166 166 159 158 161 146 156 139 134 128 112 97 85 90 105 109 101 103 95 96 119 127 126 149 145 136 175 120 88 193 170 187 205 181 189 185 177 185 225 249 222 220 277 222 89 353 355 327 14 289 21 328 21 31 6 329 27 331 294 113 129 142 181 187 144 160 182 154 170 161 156 183
147 188 186 157 159 159 159 151 148 154 166 167 167 194 180 161 169 158 157 148 141 152 129 118 99 101 92 88 93 92 88 98 87 80 82 76 87 123 123 108 117 118 112 247 159 191 205 222 179 173 230 217 287 348 358 302 227 49 249 228 309 344 347 25 63 299 40 52 23 37 200 259 22 44 135 153 162 165 178 161 154 167 170 171 166
152 198 183 154 154 160 161 156 151 160 165 151 185 223 175 151 180 148 152 142 129 117 120 110 123 118 108 100 92 99 107 87 92 94 104 86 73 63 84 119 116 142 162 135 221 143 95 93 239 202 187 245 156 276 193 359 4 136 159 155 12 3 333 8 45 32 333 22 27 276 340 352 63 0 330 90 106 30 275 209 164 180 177 185 192
165 195 168 158 157 160 169 151 146 156 154 131 47 307 195 161 179 133 128 109 98 90 101 113 106 124 127 115 100 91 79 97 99 104 66 67 36 50 96 98 122 112 132 144 154 189 217 229 298 107 183 222 177 214 229 172 215 236 216 160 114 98 263 244 67 327 308 335 301 37 344 85 36 88 82 40 121 136 222 195 180 137 32 333 283
158 186 163 162 174 171 166 143 148 150 162 125 142 229 165 155 130 110 96 96 114 126 131 127 131 114 117 121 107 115 121 96 71 54 57 54 40 47 49 101 106 124 128 146 175 168 196 182 195 184 182 309 228 189 238 12 284 299 308 274 155 156 232 158 177 119 348 94 21 20 347 33 104 41 72 15 57 82 123 118 113 126 131 185 68
156 179 149 160 170 160 139 114 126 151 129 178 197 198 151 151 149 143 141 145 140 150 142 133 138 155 114 110 124 116 87 102 102 69 68 55 60 63 27 113 119 114 100 41 86 140 84 199 148 235 154 205 206 253 120 301 260 256 240 221 144 155 165 152 214 157 222 103 355 40 331 83 38 62 74 56 43 47 12 52 43 43 43 54 78
140 160 150 123 133 114 113 182 79 31 12 310 217 190 160 156 157 155 154 150 145 134 126 133 119 107 116 117 102 108 112 96 82 97 78 67 56 46 79 68 97 111 96 65 47 28 44 35 44 292 43 38 324 357 200 78 257 212 265 74 28 1 315 141 284 185 159 68 40 38 56 44 63 88 89 77 69 59 75 68 66 68 68 55 56
119 115 112 100 142 177 148 97 120 154 146 341 296 257 152 160 168 159 155 147 134 127 132 119 114 119 123 126 127 123 113 105 109 112 126 98 69 70 61 51 57 56 64 75 56 50 31 56 37 38 30 24 341 329 98 166 240 120 117 154 349 214 209 254 214 243 61 99 126 98 76 68 86 72 73 86 144 92 81 69 78 86 87 80 78
101 101 106 124 125 91 110 158 155 132 111 114 303 299 234 163 164 161 146 118 126 135 133 134 129 129 136 143 125 106 99 97 90 72 70 107 118 79 59 59 43 67 88 97 68 56 57 51 46 46 42 40 25 12 24 7 1 76 173 168 200 217 239 219 230 331 76 164 96 73 87 105 95 89 87 108 102 111 94 114 117 102 91 88 83
99 120 131 109 83 95 123 108 98 102 140 155 234 256 314 182 201 118 111 130 137 136 137 133 133 142 130 120 121 124 117 112 91 77 69 58 69 105 85 70 69 49 53 57 75 70 54 52 42 40 35 43 36 28 31 11 31 150 101 210 127 282 277 183 171 202 155 170 118 145 206 116 89 89 104 106 106 99 95 85 90 93 96 94 88
108 109 110 110 120 100 78 89 99 92 60 359 216 258 317 274 135 106 130 139 140 140 138 145 142 144 140 145 138 129 124 105 103 88 71 73 50 78 97 87 74 61 56 65 64 71 76 64 57 53 45 41 38 42 47 43 42 29 34 52 33 348 332 28 348 85 216 158 173 194 176 111 104 104 78 85 103 102 101 93 86 88 86 86 88